www.pogodaiklimat.ru

Погода и климат >> Архив погоды >> Россия >> Ямало-Ненецкий АО >> Ныда


ПОГОДА в Ныде

  • Прогноз погоды в Ныде
  • Монитор погоды в Ныде

АРХИВ ПОГОДЫ в Ныде

Время (UTC), дата Ветер
(напр.,м/с)
 
Видим.   Явления Облачность Т
(С)
Тd
(С)
f
(%)
Тe
(С)
Тes
(С)
Комфортность P
(гПа)
Po
(гПа)
Тmin
(С)
Tmax
(С)
R
(мм)
R24
(мм)
S
(см)
18 9.06 В 2 4000 м слаб. морось {дождь} 10/10 300 м
[Sc]
+6.3 +5.5 95 +4 +4 1000.8 999.9
21 9.06 С 10-13
{13}
1000 м слаб. морось {туман} 10/10 300 м
[St]
+1.8 +1.2 96 -6 -6 1000.7 999.8
00 10.06 С 11-15
{17}
4000 м дымка {туман} 10/10 300 м
[St]
+1.1 +0.6 96 -7 -7 1003.8 1002.9
03 10.06 СЗ 9-13
{15}
20 км 4/3 300 м
[Sc Ac trans]
+2.0 +0.2 88 -5 -5 1007.1 1006.2 +1.0 2
06 10.06 СЗ 8-10
{15}
20 км 9/9 300 м
[Sc]
+2.3 -0.2 84 -4 -4 1010.3 1009.4
09 10.06 СЗ 6
{11}
50 км 8/8 300 м
[Cb cap]
+2.3 -0.6 81 -4 -3 1012.5 1011.6
12 10.06 З 3
{11}
50 км 8/6 300 м
[Sc Ac trans]
+2.4 -2.3 71 -1 -0 1013.9 1013.0
15 10.06 З 2 20 км 9/8 300 м
[Sc Ac trans]
+2.1 -2.4 72 -1 -1 1012.8 1011.9 +2.6
18 10.06 З 1 10 км 9/0
[Ac trans]
+1.7 -2.4 74 0 0 1012.6 1011.7
21 10.06 Ю 2 10 км 9/0
[Ac trans]
+0.6 -2.3 81 -3 -3 1012.1 1011.2
00 11.06 ЮВ 2 10 км 8/8 300 м
[Sc]
+1.7 -2.0 76 -1 -1 1011.5 1010.6
03 11.06 Ю 3 10 км 8/6 300 м
[Sc Ac trans]
+3.7 -2.2 65 0 +2 1010.0 1009.1 +0.6
06 11.06 ЮВ 3 50 км 9/9 300 м
[Cb cap]
+5.0 -3.3 55 +2 +3 1009.5 1008.6
09 11.06 ЮВ 2 20 км 10/10 300 м
[Cb cap]
+6.4 -3.1 51 +5 +5 1008.8 1007.9
12 11.06 ЮВ 3 10 км {ливн. осадки} 9/9 300 м
[Sc]
+6.6 -2.3 53 +4 +4 1007.3 1006.4
15 11.06 СВ 2 10 км {ливн. осадки} 9/9 300 м
[Cb cap]
+3.7 -0.5 74 +1 +1 1006.6 1005.7 +6.7 0.0
18 11.06 штиль 0 10 км {ливн. осадки} 10/10 300 м
[Cb cap]
+3.6 +1.3 85 +3 +3 1005.3 1004.4
21 11.06 В 3 4000 м слаб. дождь 10/10 300 м
[Sc]
+3.5 +2.6 94 -1 -1 1004.0 1003.1
00 12.06 В 3 4000 м слаб. дождь 10/0 300 м
[As op]
+3.1 +2.3 94 -1 -1 1002.6 1001.7
03 12.06 С 1 10 км {дождь} 10/10 300 м
[Sc]
+4.1 +2.7 91 +3 +3 1001.6 1000.7 +2.8 2
06 12.06 С 4 10 км {дождь} 9/8 300 м
[Sc Ac trans]
+4.3 +2.2 86 -0 +1 1000.2 999.3
09 12.06 С 5 10 км 8/6 300 м
[Sc Ac trans]
+3.4 +1.3 86 -2 -0 1000.1 999.2
12 12.06 С 4 20 км 6/4 600 м
[Cu Sc Ac trans]
+3.7 +0.8 81 -1 +1 1000.2 999.3
15 12.06 СЗ 5 10 км 8/3 600 м
[Cu Sc Ac trans Ci fib]
+2.0 +0.2 88 -4 -3 999.9 999.0 +4.6
18 12.06 С 3 10 км 8/8 600 м
[Sc]
+2.4 -1.5 75 -2 -2 998.7 997.8
21 12.06 С 5 10 км 6/4 300 м
[Sc Ac trans]
+1.4 -2.5 75 -4 -4 996.8
00 13.06 С 5 10 км 6/3 300 м
[Sc Ac trans Ci fib]
-0.4 -2.5 86 -7 -6 995.5 994.6
03 13.06 С 7-10
{10}
10 км 8/5 300 м
[Sc Ac trans]
+0.8 -1.1 87 -6 -5 994.3 993.4 -0.5
06 13.06 СЗ 7
{11}
20 км 4/3 300 м
[Sc Ci fib]
+1.6 -1.2 82 -5 -3 993.7 992.8
09 13.06 СЗ 7 20 км 8/4 300 м
[Sc Ac trans Ci fib]
+2.0 -2.3 73 -4 -3 993.9 993.0
12 13.06 СЗ 5 50 км 9/9 300 м
[Cb cap]
+2.4 -2.0 73 -3 -3 993.9 993.0
15 13.06 СЗ 7-10
{12}
10 км в посл. час ливневой снег 9/8 300 м
[Cb cap Ac trans]
+1.3 -1.5 82 -5 -5 992.9 992.0 +2.6 0.0
18 13.06 СЗ 8-10
{12}
10 км {ливн. осадки} 9/5 300 м
[Cb cap Ac trans]
+0.5 -3.1 77 -7 -7 992.5 991.6
21 13.06 З 6-11
{13}
10 км в посл. час ливневой снег 9/9 300 м
[Cb cap]
+0.7 -2.6 79 -6 -6 990.8 989.9
00 14.06 З 5
{13}
10 км {ливн. осадки} 9/9 300 м
[Cb cap]
+1.3 -1.5 82 -4 -4 988.6 987.7
03 14.06 З 5
{10}
4000 м слаб. снег 10/0 300 м
[As op]
+0.7 -1.1 88 -5 -5 987.2 986.8 +0.1 0.4
06 14.06 СЗ 6
{10}
4000 м слаб. ливневой дождь со снегом 10/0 300 м
[As op]
+0.5 -0.5 93 -6 -5 987.3 986.4
09 14.06 С 10-13
{14}
4000 м слаб. дождь 10/10 300 м
[Sc]
+1.0 -0.3 91 -7 -7 989.3 988.3
12 14.06 СЗ 12-16
{19}
10 км {ливн. осадки} 10/10 300 м
[Sc]
+2.2 -0.3 84 -6 -6 991.9 991.0
15 14.06 СЗ 12-16
{18}
4000 м слаб. ливневой дождь 10/10 300 м
[Cb cap]
+1.7 -1.1 82 -6 -6 994.5 993.6 +2.7 7
18 14.06 СЗ 11-15
{16}
10 км {ливн. осадки} 9/9 300 м
[Cb cap]
+1.1 -2.4 77 -7 -7 996.0 995.1
21 14.06 СЗ 9-12
{16}
10 км 9/4 300 м
[Sc Ac trans]
+1.3 -3.1 72 -6 -6 997.6 996.7
00 15.06 СЗ 6-10
{16}
10 км 6/6 300 м
[Sc]
+1.8 -1.9 76 -4 -4 998.3 997.4
03 15.06 З 5
{10}
20 км 8/6 300 м
[Cb cap Ac trans]
+3.5 -0.9 73 -1 -1 999.4 998.5 +0.6 0.0
06 15.06 З 5
{11}
10 км {ливн. осадки} 8/5 300 м
[Cb cap Ac trans]
+4.5 -0.2 72 -0 +2 1000.2 999.3
09 15.06 ЮЗ 6
{10}
20 км 6/3 600 м
[Sc Ac trans]
+3.2 -4.1 59 -2 0 1001.0 1000.1
12 15.06 ЮЗ 4
{10}
20 км 6/6 600 м
[Cu hum]
+6.4 -1.1 59 +3 +4 1001.3 1000.4
15 15.06 Ю 3 20 км {ливн. осадки} 8/6 300 м
[Cb cap Ac trans]
+4.3 +0.8 78 +1 +1 1000.9 1000.0 +8.0 0.9
18 15.06 Ю 4 10 км {ливн. осадки} 8/8 300 м
[Cb cap]
+3.1 +0.8 85 -2 -2 1000.7 999.8
21 15.06 Ю 4 10 км {ливн. осадки} 8/8 300 м
[Cb cap]
+3.1 +1.4 89 -2 -2 1000.5 999.6
00 16.06 Ю 4 10 км {ливн. осадки} 6/6 300 м
[Cb cap]
+4.7 +2.6 86 0 +1 1001.0 1000.1
03 16.06 Ю 5 4000 м слаб. ливневой дождь 9/9 300 м
[Cb cap]
+4.9 +2.7 86 0 +1 1000.0 999.1 +2.2 4
06 16.06 З 6 10 км в посл. час ливневой дождь 9/9 300 м
[Cb cap]
+7.0 +3.8 80 +3 +3 999.9 999.0
09 16.06 ЮЗ 4 4000 м слаб. дождь 10/10 300 м
[Sc]
+6.5 +3.7 82 +3 +3 999.9 999.0
12 16.06 З 3 10 км {ливн. осадки, дождь} 8/5 300 м
[Cb cap Ac trans]
+8.4 +4.5 76 +6 +7 1000.0 999.1
15 16.06 Ю 2 10 км {ливн. осадки} 8/6 300 м
[Cb cap Ac trans]
+8.4 +3.0 69 +7 +7 999.9 999.0 +10.2 2

 

Местоположение метеостанции Ныда (Ямало-Ненецкий АО, Россия): широта 66.63 долгота 72.93 высота над уровнем моря 7 м.

В архиве по умолчанию представлена погода в Ныде за последнюю неделю. Архивные данные за месяц целиком и за предыдущие месяцы, начиная с января 2011 года, Вы можете получить, выбрав интересующий диапазон дат из раскрывающегося списка и нажав кнопку "Ввод!".


*Определитесь, кто Вы:
робот инопланетянин человек

Внимание! Время в таблицах - всемирное. Для получения местного времени необходимо прибавить поправку, которая равна 5 ч.

Смотрите также архив погоды в соседних городах и на ближайших метеорологических станциях:

Погода в Пангодах (Ямало-Ненецкий АО, Россия) (113 км)
Погода в Новом Порте (Ямало-Ненецкий АО, Россия) (117 км)
Погода в Надыме (Ямало-Ненецкий АО, Россия) (130 км)
Погода в Новом Уренгое (Ямало-Ненецкий АО, Россия) (181 км)
Погода в Полуе (Ямало-Ненецкий АО, Россия) (201 км)
Погода в Белоярске (Ямало-Ненецкий АО, Россия) (212 км)
Погода в Лонг-Югане (Ямало-Ненецкий АО, Россия) (226 км)
Погода в Уренгое (Ямало-Ненецкий АО, Россия) (256 км)
Погода в Тазовском (Ямало-Ненецкий АО, Россия) (268 км)
Погода в Салехарде (Ямало-Ненецкий АО, Россия) (277 км)

Пояснения к столбцам:

Ветер - указаны скорость ветра в м/с - средняя за 10 мин, порывы в срок и между сроками (в фигурных скобках) и направление, откуда дует ветер: С - северный, СВ - северо-восточный, В - восточный, ЮВ - юго-восточный, Ю - южный, ЮЗ - юго-западный, З - западный, СЗ - северо-западный.
Видимость - горизонтальная дальность видимости в метрах или километрах. При видимости от 1 до 10 км при отсутствии осадков обычно наблюдается дымка, при ухудшении видимости до 1 км и менее - туман. В сухую погоду видимость может ухудшаться дымом, пылью или мглою.
Явления - указаны атмосферные явления, наблюдавшиеся в срок или в последний час перед сроком; фигурными скобками обозначены явления, наблюдавшиеся между сроками (за 1-3 часа до срока); квадратными скобками обозначены град или гололедные отложения с указанием их диаметра в мм.
Облачность - указаны через наклонную черту общая и нижняя облачность в баллах и высота нижней границы облаков в метрах; квадратными скобками обозначены формы облаков: Ci - перистые, Cs - перисто-слоистые, Cc - перисто-кучевые, Ac - высококучевые, As - высокослоистые, Sc - слоисто-кучевые, Ns - слоисто-дождевые, Cu - кучевые, Cb - кучево-дождевые. Подробнее классификацию облаков см. в Атласе облаков (PDF).
T - Температура воздуха - температура, измеренная на высоте 2 м над землей.
Td - Температура точки росы - температура, при понижении до которой содержащийся в воздухе водяной пар достигнет насыщения.
f - Относительная влажность воздуха - влажноcть воздуха, измеренная на высоте 2 м над землей.
Te - Эффективная температура - температура, которую ощущает одетый по сезону человек в тени. Характеристика душности погоды. При расчете учитывается влияние влажности воздуха и скорости ветра на теплоощущения человека.
Tes - Эффективная температура на солнце - температура, которую ощущает человек, с поправкой на солнечный нагрев. Характеристика знойности погоды. Зависит от высоты солнца над горизонтом, облачности и скорости ветра. Ночью, в пасмурную погоду, а также при ветре 12 м/с и более поправка равна нулю.
P - Атмосферное давление - приведенное к уровню моря атмосферное давление.
Po - Атмосферное давление - измеренное на уровне метеостанции атмосферное давление.
Tmin - Минимальная температура - минимум температуры воздуха на высоте 2 м над землей.
Tmax - Максимальная температура - максимум температуры воздуха на высоте 2 м над землей.
R - Количество осадков - Количество выпавших осадков за период времени, мм. При наведении курсора мыши на число - период времени, за который выпало указанное количество осадков.
R24 - Количество осадков - Количество выпавших осадков за 24 часа, мм.
S - Снежный покров - Высота снежного покрова, см. При наведении курсора мыши на число - состояние снежного покрова и степень покрытия местности в баллах.